SFR502 FALE-FACT

Flight info

Callsign SFR502
Flight time 1h 59m
Altitude 36000
Route TUBIN1B TUBIN UZ3 ESRUK UQ51 GETEN GETEN1B
Aircraft B738/M-SDE2E3FGHIRWXY/LB1

Departure

Time 2026-05-07 06:13
Airport King Shaka International Airport (FALE)

Arrival

Time 2026-05-07 08:13
Airport Cape Town International Airport (FACT)
Time Latitude Longitude Altitude Speed Heading
2026-05-07 06:10 -29.60222 31.12515 310 ft 17 kts 37°
2026-05-07 06:10 -29.60160 31.12569 307 ft 17 kts 37°
2026-05-07 06:10 -29.60070 31.12648 308 ft 16 kts 37°
2026-05-07 06:10 -29.59983 31.12722 306 ft 15 kts 37°
2026-05-07 06:11 -29.59900 31.12795 305 ft 15 kts 38°
2026-05-07 06:11 -29.59820 31.12865 308 ft 14 kts 37°
2026-05-07 06:11 -29.59772 31.12943 292 ft 12 kts 90°
2026-05-07 06:11 -29.59817 31.13020 305 ft 13 kts 127°
2026-05-07 06:12 -29.59870 31.13058 305 ft 9 kts 191°
2026-05-07 06:12 -29.59921 31.13020 304 ft 10 kts 217°
2026-05-07 06:12 -29.60141 31.12827 304 ft 79 kts 217°
2026-05-07 06:12 -29.60776 31.12276 300 ft 148 kts 217°
2026-05-07 06:13 -29.61715 31.11464 724 ft 171 kts 219°
2026-05-07 06:13 -29.62643 31.10652 1664 ft 171 kts 221°
2026-05-07 06:13 -29.63601 31.09804 2420 ft 182 kts 220°
2026-05-07 06:13 -29.64678 31.08823 2694 ft 212 kts 220°
2026-05-07 06:14 -29.65877 31.07690 2926 ft 235 kts 227°
2026-05-07 06:14 -29.66813 31.06086 3303 ft 253 kts 242°
2026-05-07 06:14 -29.67669 31.04267 3989 ft 258 kts 242°
2026-05-07 06:14 -29.68513 31.02468 5032 ft 256 kts 241°
2026-05-07 06:15 -29.69364 31.00668 5970 ft 255 kts 241°
2026-05-07 06:15 -29.70212 30.98885 6906 ft 254 kts 241°
2026-05-07 06:15 -29.71063 30.97107 7794 ft 253 kts 240°
2026-05-07 06:15 -29.71915 30.95333 8684 ft 253 kts 241°
2026-05-07 06:16 -29.72765 30.93569 9644 ft 251 kts 241°
2026-05-07 06:16 -29.73622 30.91794 10284 ft 260 kts 242°
2026-05-07 06:16 -29.74545 30.89881 10481 ft 285 kts 242°
2026-05-07 06:16 -29.75547 30.87805 10663 ft 309 kts 242°
2026-05-07 06:17 -29.76623 30.85576 10930 ft 326 kts 242°
2026-05-07 06:17 -29.77739 30.83268 11513 ft 332 kts 242°
2026-05-07 06:17 -29.78869 30.80931 12188 ft 337 kts 242°
2026-05-07 06:17 -29.80017 30.78555 12843 ft 341 kts 242°
2026-05-07 06:18 -29.81179 30.76148 13516 ft 345 kts 243°
2026-05-07 06:18 -29.82349 30.73723 14173 ft 348 kts 244°
2026-05-07 06:18 -29.83532 30.71270 14805 ft 351 kts 244°
2026-05-07 06:18 -29.84724 30.68795 15396 ft 355 kts 244°
2026-05-07 06:19 -29.85928 30.66296 15988 ft 359 kts 244°
2026-05-07 06:19 -29.87146 30.63764 16526 ft 364 kts 245°
2026-05-07 06:19 -29.88379 30.61202 17133 ft 367 kts 245°
2026-05-07 06:19 -29.89625 30.58615 17709 ft 371 kts 245°
2026-05-07 06:20 -29.90869 30.56030 18229 ft 375 kts 245°
2026-05-07 06:20 -29.92138 30.53391 18746 ft 377 kts 245°
2026-05-07 06:20 -29.93415 30.50736 19290 ft 379 kts 245°
2026-05-07 06:20 -29.94697 30.48069 19808 ft 381 kts 246°
2026-05-07 06:21 -29.95987 30.45380 20325 ft 384 kts 246°
2026-05-07 06:21 -29.97287 30.42671 20839 ft 386 kts 246°
2026-05-07 06:21 -29.98574 30.39985 21319 ft 388 kts 246°
2026-05-07 06:21 -29.99882 30.37255 21832 ft 390 kts 245°
2026-05-07 06:22 -30.01198 30.34506 22302 ft 392 kts 245°
2026-05-07 06:22 -30.03853 30.28961 23237 ft 398 kts 245°
2026-05-07 06:22 -30.05236 30.26170 23614 ft 402 kts 244°
2026-05-07 06:23 -30.06643 30.23389 24039 ft 402 kts 244°
2026-05-07 06:23 -30.08062 30.20597 24431 ft 403 kts 244°
2026-05-07 06:23 -30.09486 30.17787 24776 ft 406 kts 244°
2026-05-07 06:23 -30.10896 30.14996 25126 ft 408 kts 245°
2026-05-07 06:24 -30.12325 30.12158 25493 ft 410 kts 245°
2026-05-07 06:24 -30.13758 30.09305 25914 ft 410 kts 245°
2026-05-07 06:24 -30.15190 30.06452 26290 ft 411 kts 245°
2026-05-07 06:24 -30.16627 30.03583 26601 ft 413 kts 245°
2026-05-07 06:25 -30.18069 30.00699 26915 ft 415 kts 245°
2026-05-07 06:25 -30.19502 29.97835 27201 ft 417 kts 245°
2026-05-07 06:25 -30.20957 29.94924 27491 ft 419 kts 245°
2026-05-07 06:25 -30.22436 29.91964 27821 ft 420 kts 245°
2026-05-07 06:26 -30.23882 29.89067 28136 ft 422 kts 245°
2026-05-07 06:26 -30.25351 29.86122 28429 ft 423 kts 245°
2026-05-07 06:26 -30.26828 29.83158 28664 ft 426 kts 245°
2026-05-07 06:26 -30.28300 29.80193 29082 ft 423 kts 245°
2026-05-07 06:27 -30.29615 29.77161 29593 ft 418 kts 249°
2026-05-07 06:27 -30.30841 29.74122 30005 ft 416 kts 250°
2026-05-07 06:27 -30.32042 29.71081 30318 ft 416 kts 250°
2026-05-07 06:27 -30.33241 29.68031 30586 ft 416 kts 250°
2026-05-07 06:28 -30.34444 29.64979 30878 ft 416 kts 250°
2026-05-07 06:28 -30.35653 29.61927 31206 ft 416 kts 250°
2026-05-07 06:28 -30.36847 29.58923 31497 ft 415 kts 250°
2026-05-07 06:28 -30.38057 29.55881 31757 ft 416 kts 250°
2026-05-07 06:29 -30.39268 29.52841 31952 ft 417 kts 250°
2026-05-07 06:29 -30.40491 29.49763 31987 ft 423 kts 250°
2026-05-07 06:29 -30.41729 29.46652 32195 ft 425 kts 250°
2026-05-07 06:29 -30.42964 29.43551 32563 ft 423 kts 250°
2026-05-07 06:30 -30.44194 29.40462 32921 ft 421 kts 251°
2026-05-07 06:30 -30.45420 29.37378 33173 ft 421 kts 251°
2026-05-07 06:30 -30.46645 29.34288 33413 ft 422 kts 251°
2026-05-07 06:30 -30.47873 29.31190 33677 ft 422 kts 251°
2026-05-07 06:31 -30.49099 29.28097 33955 ft 422 kts 251°
2026-05-07 06:31 -30.50323 29.25006 34190 ft 421 kts 251°
2026-05-07 06:31 -30.51540 29.21928 34536 ft 418 kts 251°
2026-05-07 06:31 -30.52748 29.18875 34867 ft 415 kts 251°
2026-05-07 06:32 -30.53932 29.15875 35062 ft 415 kts 251°
2026-05-07 06:32 -30.55136 29.12821 35212 ft 417 kts 251°
2026-05-07 06:32 -30.57553 29.06681 35505 ft 419 kts 251°
2026-05-07 06:33 -30.58756 29.03621 35729 ft 418 kts 251°
2026-05-07 06:33 -30.59962 29.00555 35857 ft 419 kts 251°
2026-05-07 06:33 -30.62386 28.94379 35867 ft 419 kts 250°
2026-05-07 06:34 -30.64781 28.88275 35863 ft 413 kts 250°
2026-05-07 06:34 -30.67144 28.82236 35854 ft 408 kts 251°
2026-05-07 06:35 -30.69494 28.76214 35878 ft 412 kts 251°
2026-05-07 06:35 -30.71859 28.70141 35856 ft 418 kts 250°
2026-05-07 06:36 -30.74253 28.63998 35917 ft 416 kts 250°
2026-05-07 06:36 -30.76615 28.57929 35856 ft 406 kts 250°
2026-05-07 06:37 -30.78937 28.51949 35867 ft 405 kts 250°
2026-05-07 06:37 -30.81256 28.45964 35880 ft 406 kts 250°
2026-05-07 06:38 -30.83560 28.40012 35865 ft 405 kts 251°
2026-05-07 06:38 -30.85876 28.34023 35875 ft 406 kts 250°
2026-05-07 06:39 -30.88199 28.27996 35903 ft 409 kts 250°
2026-05-07 06:39 -30.90538 28.21924 35899 ft 412 kts 250°
2026-05-07 06:40 -30.92881 28.15807 35922 ft 414 kts 250°
2026-05-07 06:40 -30.95212 28.09698 35927 ft 416 kts 250°
2026-05-07 06:41 -30.97572 28.03521 35963 ft 418 kts 249°
2026-05-07 06:41 -30.99930 27.97308 35924 ft 419 kts 249°
2026-05-07 06:42 -31.02292 27.91102 35928 ft 418 kts 249°
2026-05-07 06:42 -31.04658 27.84927 35937 ft 416 kts 249°
2026-05-07 06:43 -31.07015 27.78767 35961 ft 414 kts 249°
2026-05-07 06:43 -31.09340 27.72678 35949 ft 413 kts 249°
2026-05-07 06:44 -31.11671 27.66556 35957 ft 412 kts 249°
2026-05-07 06:44 -31.13988 27.60462 35969 ft 410 kts 249°
2026-05-07 06:45 -31.16289 27.54405 35975 ft 409 kts 249°
2026-05-07 06:45 -31.18593 27.48320 35979 ft 410 kts 249°
2026-05-07 06:46 -31.20900 27.42211 35992 ft 411 kts 249°
2026-05-07 06:46 -31.23197 27.36128 35970 ft 412 kts 249°
2026-05-07 06:47 -31.25511 27.29989 35982 ft 413 kts 249°
2026-05-07 06:47 -31.27826 27.23837 35977 ft 414 kts 249°
2026-05-07 06:48 -31.30144 27.17665 35979 ft 415 kts 249°
2026-05-07 06:48 -31.32464 27.11476 35977 ft 415 kts 249°
2026-05-07 06:49 -31.34771 27.05310 35987 ft 416 kts 249°
2026-05-07 06:49 -31.37088 26.99109 35988 ft 415 kts 249°
2026-05-07 06:50 -31.39382 26.92917 35988 ft 414 kts 249°
2026-05-07 06:50 -31.41659 26.86716 36003 ft 414 kts 249°
2026-05-07 06:51 -31.43927 26.80531 36000 ft 413 kts 249°
2026-05-07 06:51 -31.46181 26.74377 36000 ft 412 kts 249°
2026-05-07 06:52 -31.48439 26.68205 35992 ft 411 kts 249°
2026-05-07 06:52 -31.50690 26.62038 35998 ft 410 kts 249°
2026-05-07 06:53 -31.52931 26.55890 36008 ft 410 kts 249°
2026-05-07 06:53 -31.55159 26.49772 36013 ft 411 kts 249°
2026-05-07 06:54 -31.57417 26.43607 36003 ft 411 kts 248°
2026-05-07 06:54 -31.59673 26.37450 36012 ft 411 kts 249°
2026-05-07 06:55 -31.61929 26.31275 36014 ft 411 kts 248°
2026-05-07 06:55 -31.63796 26.26157 36013 ft 410 kts 248°
2026-05-07 06:56 -31.66033 26.20012 36018 ft 408 kts 248°
2026-05-07 06:56 -31.68619 26.12892 36019 ft 408 kts 248°
2026-05-07 06:57 -31.70842 26.06758 36018 ft 408 kts 248°
2026-05-07 06:57 -31.72704 26.01614 36029 ft 409 kts 248°
2026-05-07 06:58 -31.74935 25.95440 36014 ft 411 kts 248°
2026-05-07 06:58 -31.77157 25.89278 36024 ft 412 kts 248°
2026-05-07 06:59 -31.79400 25.83049 36021 ft 414 kts 248°
2026-05-07 06:59 -31.81643 25.76807 36020 ft 415 kts 248°
2026-05-07 07:00 -31.83892 25.70539 36022 ft 416 kts 248°
2026-05-07 07:00 -31.86139 25.64263 36029 ft 416 kts 248°
2026-05-07 07:01 -31.88369 25.58019 36030 ft 416 kts 248°
2026-05-07 07:01 -31.90608 25.51744 36017 ft 415 kts 248°
2026-05-07 07:02 -31.92830 25.45504 36018 ft 412 kts 248°
2026-05-07 07:02 -31.95039 25.39287 36021 ft 410 kts 248°
2026-05-07 07:03 -31.97235 25.33096 36028 ft 408 kts 248°
2026-05-07 07:03 -31.99402 25.26978 36021 ft 406 kts 248°
2026-05-07 07:04 -32.01576 25.20825 36053 ft 408 kts 248°
2026-05-07 07:04 -32.03758 25.14640 36051 ft 408 kts 248°
2026-05-07 07:05 -32.05940 25.08445 36066 ft 409 kts 248°
2026-05-07 07:05 -32.08107 25.02278 36060 ft 410 kts 248°
2026-05-07 07:06 -32.10292 24.96050 36073 ft 412 kts 248°
2026-05-07 07:06 -32.12486 24.89785 36081 ft 415 kts 248°
2026-05-07 07:07 -32.14696 24.83459 36080 ft 418 kts 248°
2026-05-07 07:07 -32.16919 24.77086 36085 ft 421 kts 248°
2026-05-07 07:08 -32.19150 24.70679 36088 ft 423 kts 248°
2026-05-07 07:08 -32.21389 24.64234 36083 ft 424 kts 248°
2026-05-07 07:09 -32.23622 24.57795 36087 ft 420 kts 248°
2026-05-07 07:09 -32.25810 24.51476 36076 ft 412 kts 248°
2026-05-07 07:10 -32.27980 24.45196 36077 ft 412 kts 248°
2026-05-07 07:10 -32.30136 24.38941 36078 ft 410 kts 248°
2026-05-07 07:11 -32.32272 24.32733 36093 ft 410 kts 248°
2026-05-07 07:11 -32.34419 24.26483 36090 ft 411 kts 249°
2026-05-07 07:12 -32.36571 24.20204 36089 ft 412 kts 248°
2026-05-07 07:12 -32.38725 24.13909 36095 ft 414 kts 248°
2026-05-07 07:13 -32.40888 24.07575 36114 ft 416 kts 249°
2026-05-07 07:13 -32.43060 24.01204 36114 ft 419 kts 248°
2026-05-07 07:14 -32.45239 23.94782 36106 ft 421 kts 249°
2026-05-07 07:14 -32.47395 23.88396 36103 ft 421 kts 249°
2026-05-07 07:15 -32.49565 23.81955 36115 ft 420 kts 249°
2026-05-07 07:15 -32.51729 23.75524 36114 ft 420 kts 249°
2026-05-07 07:16 -32.53886 23.69101 36119 ft 419 kts 248°
2026-05-07 07:16 -32.56038 23.62680 36121 ft 419 kts 249°
2026-05-07 07:17 -32.58184 23.56260 36128 ft 418 kts 249°
2026-05-07 07:17 -32.60325 23.49846 36128 ft 418 kts 249°
2026-05-07 07:18 -32.62447 23.43477 36135 ft 418 kts 249°
2026-05-07 07:18 -32.64584 23.37051 36131 ft 418 kts 248°
2026-05-07 07:19 -32.66726 23.30626 36139 ft 419 kts 248°
2026-05-07 07:19 -32.68871 23.24188 36139 ft 420 kts 248°
2026-05-07 07:20 -32.71020 23.17719 36140 ft 420 kts 249°
2026-05-07 07:20 -32.73163 23.11256 36136 ft 421 kts 249°
2026-05-07 07:21 -32.75293 23.04815 36137 ft 421 kts 249°
2026-05-07 07:21 -32.77435 22.98329 36143 ft 422 kts 249°
2026-05-07 07:22 -32.79577 22.91825 36141 ft 422 kts 249°
2026-05-07 07:22 -32.81719 22.85313 36142 ft 422 kts 249°
2026-05-07 07:23 -32.83853 22.78807 36159 ft 422 kts 249°
2026-05-07 07:23 -32.85975 22.72326 36140 ft 423 kts 249°
2026-05-07 07:24 -32.88109 22.65796 36150 ft 423 kts 249°
2026-05-07 07:24 -32.90237 22.59269 36150 ft 423 kts 249°
2026-05-07 07:25 -32.93739 22.49621 36157 ft 424 kts 245°
2026-05-07 07:26 -32.96310 22.43315 36151 ft 424 kts 245°
2026-05-07 07:26 -32.98874 22.36980 36158 ft 424 kts 245°
2026-05-07 07:27 -33.01410 22.30630 36159 ft 425 kts 245°
2026-05-07 07:27 -33.03918 22.24309 36158 ft 425 kts 245°
2026-05-07 07:28 -33.06439 22.17937 36164 ft 425 kts 245°
2026-05-07 07:28 -33.08961 22.11551 36163 ft 426 kts 245°
2026-05-07 07:29 -33.11481 22.05160 36162 ft 426 kts 245°
2026-05-07 07:29 -33.13994 21.98774 36172 ft 425 kts 245°
2026-05-07 07:30 -33.16507 21.92377 36174 ft 425 kts 245°
2026-05-07 07:30 -33.19015 21.85982 36174 ft 425 kts 245°
2026-05-07 07:31 -33.21512 21.79600 36180 ft 424 kts 246°
2026-05-07 07:31 -33.23994 21.73246 36175 ft 424 kts 246°
2026-05-07 07:32 -33.26485 21.66858 36181 ft 424 kts 246°
2026-05-07 07:32 -33.28975 21.60459 36182 ft 424 kts 246°
2026-05-07 07:33 -33.31460 21.54060 36179 ft 424 kts 246°
2026-05-07 07:33 -33.33945 21.47653 36193 ft 425 kts 246°
2026-05-07 07:34 -33.36430 21.41228 36190 ft 426 kts 246°
2026-05-07 07:34 -33.38918 21.34787 36197 ft 426 kts 246°
2026-05-07 07:35 -33.41402 21.28342 36201 ft 426 kts 246°
2026-05-07 07:35 -33.43865 21.21939 36208 ft 426 kts 246°
2026-05-07 07:36 -33.46348 21.15475 36202 ft 427 kts 246°
2026-05-07 07:36 -33.48829 21.09002 36208 ft 427 kts 246°
2026-05-07 07:37 -33.51305 21.02530 36213 ft 427 kts 246°
2026-05-07 07:37 -33.53778 20.96050 36214 ft 427 kts 246°
2026-05-07 07:38 -33.56229 20.89616 36217 ft 427 kts 246°
2026-05-07 07:38 -33.58699 20.83120 36207 ft 427 kts 246°
2026-05-07 07:38 -33.59942 20.79844 35693 ft 434 kts 246°
2026-05-07 07:39 -33.61190 20.76554 35117 ft 432 kts 246°
2026-05-07 07:39 -33.62428 20.73287 34729 ft 427 kts 246°
2026-05-07 07:39 -33.63637 20.70091 34284 ft 424 kts 246°
2026-05-07 07:39 -33.64854 20.66874 33791 ft 421 kts 246°
2026-05-07 07:40 -33.66057 20.63688 33311 ft 417 kts 245°
2026-05-07 07:40 -33.67249 20.60530 32862 ft 413 kts 245°
2026-05-07 07:40 -33.68428 20.57402 32426 ft 409 kts 245°
2026-05-07 07:40 -33.69594 20.54306 31997 ft 405 kts 245°
2026-05-07 07:41 -33.70747 20.51241 31580 ft 401 kts 245°
2026-05-07 07:41 -33.71889 20.48204 31163 ft 397 kts 244°
2026-05-07 07:41 -33.73022 20.45188 30739 ft 394 kts 244°
2026-05-07 07:41 -33.74144 20.42199 30329 ft 391 kts 244°
2026-05-07 07:42 -33.75254 20.39237 29855 ft 387 kts 244°
2026-05-07 07:42 -33.76354 20.36303 29416 ft 383 kts 244°
2026-05-07 07:42 -33.77441 20.33397 28971 ft 379 kts 244°
2026-05-07 07:42 -33.78516 20.30523 28574 ft 374 kts 244°
2026-05-07 07:43 -33.79578 20.27682 28135 ft 371 kts 244°
2026-05-07 07:43 -33.80277 20.25810 27859 ft 369 kts 244°
2026-05-07 07:43 -33.81663 20.22095 27312 ft 365 kts 244°
2026-05-07 07:43 -33.82698 20.19319 26896 ft 362 kts 244°
2026-05-07 07:44 -33.83390 20.17461 26628 ft 360 kts 244°
2026-05-07 07:44 -33.84411 20.14717 26223 ft 357 kts 244°
2026-05-07 07:44 -33.85422 20.11999 25821 ft 355 kts 244°
2026-05-07 07:44 -33.86414 20.09330 25421 ft 353 kts 244°
2026-05-07 07:45 -33.87411 20.06642 25039 ft 350 kts 244°
2026-05-07 07:45 -33.88403 20.03970 24655 ft 348 kts 244°
2026-05-07 07:45 -33.89386 20.01317 24267 ft 346 kts 244°
2026-05-07 07:45 -33.90365 19.98674 23870 ft 345 kts 243°
2026-05-07 07:46 -33.91340 19.96040 23428 ft 343 kts 243°
2026-05-07 07:46 -33.92306 19.93426 22991 ft 340 kts 243°
2026-05-07 07:46 -33.93265 19.90831 22598 ft 337 kts 243°
2026-05-07 07:46 -33.94214 19.88261 22204 ft 335 kts 243°
2026-05-07 07:47 -33.95157 19.85704 21829 ft 332 kts 243°
2026-05-07 07:47 -33.96090 19.83173 21460 ft 329 kts 243°
2026-05-07 07:47 -33.97019 19.80661 21085 ft 327 kts 242°
2026-05-07 07:47 -33.98017 19.78209 20705 ft 324 kts 239°
2026-05-07 07:48 -33.99040 19.75835 20354 ft 322 kts 239°
2026-05-07 07:48 -34.00077 19.73450 19997 ft 320 kts 239°
2026-05-07 07:48 -34.01104 19.71075 19650 ft 318 kts 239°
2026-05-07 07:48 -34.02120 19.68708 19289 ft 318 kts 238°
2026-05-07 07:49 -34.03130 19.66343 18925 ft 316 kts 239°
2026-05-07 07:49 -34.04135 19.63982 18551 ft 316 kts 238°
2026-05-07 07:49 -34.05119 19.61621 18151 ft 316 kts 243°
2026-05-07 07:49 -34.05593 19.59005 17774 ft 325 kts 264°
2026-05-07 07:50 -34.05470 19.56275 17428 ft 326 kts 270°
2026-05-07 07:50 -34.05231 19.53557 17057 ft 326 kts 271°
2026-05-07 07:50 -34.04976 19.50881 16705 ft 324 kts 271°
2026-05-07 07:50 -34.04723 19.48187 16357 ft 323 kts 271°
2026-05-07 07:51 -34.04479 19.45495 15986 ft 322 kts 271°
2026-05-07 07:51 -34.04243 19.42816 15644 ft 321 kts 271°
2026-05-07 07:51 -34.04010 19.40140 15314 ft 319 kts 271°
2026-05-07 07:51 -34.03781 19.37481 14972 ft 318 kts 271°
2026-05-07 07:52 -34.03554 19.34827 14627 ft 318 kts 271°
2026-05-07 07:52 -34.03329 19.32173 14289 ft 318 kts 271°
2026-05-07 07:52 -34.03103 19.29515 13917 ft 319 kts 271°
2026-05-07 07:52 -34.02876 19.26854 13544 ft 318 kts 271°
2026-05-07 07:53 -34.02649 19.24230 13391 ft 310 kts 271°
2026-05-07 07:53 -34.02428 19.21681 13239 ft 302 kts 271°
2026-05-07 07:53 -34.02211 19.19181 12868 ft 302 kts 271°
2026-05-07 07:53 -34.01991 19.16635 12459 ft 305 kts 271°
2026-05-07 07:54 -34.01769 19.14097 12117 ft 304 kts 271°
2026-05-07 07:54 -34.01546 19.11568 11788 ft 303 kts 271°
2026-05-07 07:54 -34.01327 19.09083 11497 ft 301 kts 271°
2026-05-07 07:54 -34.01107 19.06576 11192 ft 299 kts 272°
2026-05-07 07:55 -34.00881 19.04099 10901 ft 298 kts 272°
2026-05-07 07:55 -34.00654 19.01629 10619 ft 294 kts 271°
2026-05-07 07:55 -34.00443 18.99193 10378 ft 287 kts 271°
2026-05-07 07:55 -34.00235 18.96847 10256 ft 276 kts 272°
2026-05-07 07:56 -34.00042 18.94601 10059 ft 265 kts 271°
2026-05-07 07:56 -33.99852 18.92359 9643 ft 276 kts 272°
2026-05-07 07:56 -33.99644 18.90039 9352 ft 282 kts 272°
2026-05-07 07:56 -33.99433 18.87686 9082 ft 281 kts 272°
2026-05-07 07:57 -33.99221 18.85383 8949 ft 273 kts 272°
2026-05-07 07:57 -33.99018 18.83168 8842 ft 266 kts 272°
2026-05-07 07:57 -33.98819 18.80982 8730 ft 258 kts 272°
2026-05-07 07:57 -33.98626 18.78861 8626 ft 251 kts 272°
2026-05-07 07:58 -33.98439 18.76804 8534 ft 244 kts 272°
2026-05-07 07:58 -33.98013 18.74830 8388 ft 245 kts 300°
2026-05-07 07:58 -33.96791 18.73504 8236 ft 236 kts 334°
2026-05-07 07:58 -33.95273 18.72800 8034 ft 233 kts 342°
2026-05-07 07:59 -33.93725 18.72223 7801 ft 233 kts 345°
2026-05-07 07:59 -33.92170 18.71699 7578 ft 231 kts 346°
2026-05-07 07:59 -33.90637 18.71197 7380 ft 232 kts 345°
2026-05-07 07:59 -33.89076 18.70684 7191 ft 234 kts 346°
2026-05-07 08:00 -33.87490 18.70163 6980 ft 238 kts 346°
2026-05-07 08:00 -33.85891 18.69637 6769 ft 236 kts 346°
2026-05-07 08:00 -33.84317 18.69124 6571 ft 231 kts 346°
2026-05-07 08:00 -33.82785 18.68623 6397 ft 227 kts 347°
2026-05-07 08:01 -33.81262 18.68146 6235 ft 225 kts 346°
2026-05-07 08:01 -33.79760 18.67658 6092 ft 223 kts 346°
2026-05-07 08:01 -33.78274 18.67160 5956 ft 221 kts 346°
2026-05-07 08:01 -33.76786 18.66674 5856 ft 223 kts 347°
2026-05-07 08:02 -33.75266 18.66263 5726 ft 224 kts 354°
2026-05-07 08:02 -33.73739 18.65835 5626 ft 227 kts 342°
2026-05-07 08:02 -33.72248 18.65247 5563 ft 225 kts 345°
2026-05-07 08:02 -33.70749 18.64741 5538 ft 222 kts 347°
2026-05-07 08:03 -33.69260 18.64281 5533 ft 220 kts 347°
2026-05-07 08:03 -33.67795 18.63827 5449 ft 223 kts 347°
2026-05-07 08:03 -33.66267 18.63341 5204 ft 229 kts 347°
2026-05-07 08:03 -33.64830 18.62554 4919 ft 228 kts 318°
2026-05-07 08:04 -33.63984 18.61024 4664 ft 217 kts 281°
2026-05-07 08:04 -33.64012 18.59294 4402 ft 201 kts 244°
2026-05-07 08:04 -33.64804 18.58041 4169 ft 182 kts 213°
2026-05-07 08:04 -33.65803 18.57138 3926 ft 180 kts 210°
2026-05-07 08:05 -33.66838 18.56312 3672 ft 179 kts 208°
2026-05-07 08:05 -33.67880 18.55487 3424 ft 180 kts 208°
2026-05-07 08:05 -33.68923 18.54657 3153 ft 179 kts 208°
2026-05-07 08:05 -33.69966 18.53835 3073 ft 181 kts 209°
2026-05-07 08:06 -33.71026 18.53010 3024 ft 181 kts 208°
2026-05-07 08:06 -33.72160 18.52480 2963 ft 171 kts 173°
2026-05-07 08:06 -33.73261 18.52817 2997 ft 168 kts 162°
2026-05-07 08:06 -33.74396 18.53157 3015 ft 168 kts 163°
2026-05-07 08:07 -33.75534 18.53501 3009 ft 169 kts 162°
2026-05-07 08:07 -33.76662 18.53852 3020 ft 161 kts 162°
2026-05-07 08:07 -33.77716 18.54186 2989 ft 150 kts 162°
2026-05-07 08:07 -33.78710 18.54503 2985 ft 148 kts 162°
2026-05-07 08:08 -33.79690 18.54814 2987 ft 147 kts 162°
2026-05-07 08:08 -33.80659 18.55123 3028 ft 141 kts 161°
2026-05-07 08:08 -33.81597 18.55422 2997 ft 137 kts 161°
2026-05-07 08:08 -33.82528 18.55717 2985 ft 137 kts 161°
2026-05-07 08:09 -33.83437 18.56009 2871 ft 136 kts 162°
2026-05-07 08:09 -33.84359 18.56302 2672 ft 136 kts 161°
2026-05-07 08:09 -33.85269 18.56593 2484 ft 136 kts 161°
2026-05-07 08:09 -33.86189 18.56883 2287 ft 137 kts 162°
2026-05-07 08:10 -33.87105 18.57177 2090 ft 136 kts 161°
2026-05-07 08:10 -33.88023 18.57469 1888 ft 136 kts 161°
2026-05-07 08:10 -33.88941 18.57763 1697 ft 137 kts 162°
2026-05-07 08:10 -33.89866 18.58056 1491 ft 138 kts 163°
2026-05-07 08:11 -33.90802 18.58323 1281 ft 137 kts 165°
2026-05-07 08:11 -33.91706 18.58614 1067 ft 135 kts 164°
2026-05-07 08:11 -33.92603 18.58919 914 ft 131 kts 165°
2026-05-07 08:11 -33.93480 18.59203 739 ft 130 kts 164°
2026-05-07 08:12 -33.94356 18.59487 523 ft 132 kts 165°
2026-05-07 08:12 -33.95225 18.59760 349 ft 127 kts 165°
2026-05-07 08:12 -33.96041 18.60024 204 ft 117 kts 165°
2026-05-07 08:12 -33.96767 18.60253 157 ft 89 kts 165°
2026-05-07 08:13 -33.97158 18.60378 154 ft 37 kts 165°
2026-05-07 08:13 -33.97411 18.60458 151 ft 37 kts 166°
2026-05-07 08:13 -33.97643 18.60533 152 ft 26 kts 164°
2026-05-07 08:13 -33.97753 18.60565 155 ft 15 kts 178°
2026-05-07 08:14 -33.97784 18.60478 153 ft 13 kts 282°
2026-05-07 08:14 -33.97760 18.60372 153 ft 13 kts 285°
2026-05-07 08:14 -33.97741 18.60281 153 ft 11 kts 284°
2026-05-07 08:14 -33.97713 18.60198 153 ft 11 kts 313°
2026-05-07 08:15 -33.97646 18.60159 153 ft 13 kts 339°
2026-05-07 08:15 -33.97556 18.60117 153 ft 14 kts 338°
2026-05-07 08:15 -33.97468 18.60074 153 ft 13 kts 340°
2026-05-07 08:15 -33.97381 18.60044 153 ft 13 kts 351°
2026-05-07 08:16 -33.97296 18.60016 153 ft 12 kts 345°
2026-05-07 08:16 -33.97230 18.59995 153 ft 5 kts 346°
2026-05-07 08:16 -33.97190 18.59983 153 ft 7 kts 346°
2026-05-07 08:16 -33.97143 18.59969 153 ft 6 kts 346°
2026-05-07 08:17 -33.97104 18.59954 153 ft 5 kts 320°
2026-05-07 08:17 -33.97102 18.59916 153 ft 5 kts 253°
2026-05-07 08:17 -33.97106 18.59898 153 ft 2 kts 253°
2026-05-07 08:17 -33.97110 18.59880 153 ft 1 kts 255°
2026-05-07 08:18 -33.97112 18.59872 153 ft 0 kts 255°